Private Wetterstation Wechselburg
Wetterdaten: Mittwoch, 08.02.2012
Datum Zeit Temp. +2m Bodentemp. Temp.+5cm Temp. Wind Windchill X Diff Temp. Feuchte +2m Feuchte +5cm Sonnenschein Luftdruck Regen Wind Richtung Richtung Sonnenschein UV Taupunkt Windchill Windben
08.02.2012 00:00 -9,8 C -2,5 C -9,3 C -10,0 C -10,5 C 0,0 C 82 % 83 % 0 % 1037,9 hPa 0,0 l/m 2,3 km/h (1 Bft) O 90 0 min 0,0 UV-I -12,3 C -10,5 C 2,7 km/h (1 Bft)
08.02.2012 00:10 -9,8 C -2,7 C -9,3 C -9,8 C -9,9 C 0,0 C 82 % 83 % 0 % 1037,9 hPa 0,0 l/m 1,4 km/h (1 Bft) N 0 0 min 0,0 UV-I -12,3 C -9,9 C 1,9 km/h (1 Bft)
08.02.2012 00:20 -9,7 C -2,5 C -9,3 C -9,8 C -10,1 C 0,0 C 82 % 83 % 0 % 1037,9 hPa 0,0 l/m 1,9 km/h (1 Bft) NO 45 0 min 0,0 UV-I -12,2 C -10,1 C 2,7 km/h (1 Bft)
08.02.2012 00:25 -9,7 C -2,7 C -9,3 C -10,0 C -10,5 C 0,0 C 82 % 83 % 0 % 1037,9 hPa 0,0 l/m 2,3 km/h (1 Bft) O-NO 67 0 min 0,0 UV-I -12,2 C -10,5 C 2,3 km/h (1 Bft)
08.02.2012 00:30 -9,7 C -2,7 C -9,3 C -9,8 C -9,9 C 0,0 C 82 % 83 % 0 % 1037,9 hPa 0,0 l/m 1,8 km/h (1 Bft) O-NO 67 0 min 0,0 UV-I -12,2 C -9,9 C 4,7 km/h (1 Bft)
08.02.2012 00:35 -9,7 C -2,5 C -9,3 C -9,8 C -9,9 C 0,0 C 82 % 83 % 0 % 1037,9 hPa 0,0 l/m 1,8 km/h (1 Bft) NO 45 0 min 0,0 UV-I -12,2 C -9,9 C 1,8 km/h (1 Bft)
08.02.2012 00:40 -9,7 C -2,7 C -9,3 C -10,0 C -10,5 C 0,0 C 82 % 83 % 0 % 1037,9 hPa 0,0 l/m 2,3 km/h (1 Bft) O-NO 67 0 min 0,0 UV-I -12,2 C -10,5 C 4,8 km/h (1 Bft)
08.02.2012 00:45 -9,7 C -2,7 C -9,3 C -10,0 C -10,5 C 0,0 C 82 % 83 % 0 % 1037,9 hPa 0,0 l/m 2,3 km/h (1 Bft) O-NO 67 0 min 0,0 UV-I -12,2 C -10,5 C 2,6 km/h (1 Bft)
08.02.2012 00:50 -9,7 C -2,5 C -9,4 C -10,0 C -10,7 C 0,0 C 82 % 83 % 0 % 1037,9 hPa 0,0 l/m 2,4 km/h (1 Bft) O-NO 67 0 min 0,0 UV-I -12,2 C -10,7 C 1,9 km/h (1 Bft)
08.02.2012 00:55 -9,7 C -2,5 C -9,3 C -9,8 C -10,1 C 0,0 C 82 % 83 % 0 % 1037,9 hPa 0,0 l/m 1,9 km/h (1 Bft) O-NO 67 0 min 0,0 UV-I -12,2 C -10,1 C 4,5 km/h (1 Bft)
08.02.2012 01:00 -9,7 C -2,5 C -9,4 C -10,0 C -10,5 C 0,0 C 82 % 83 % 0 % 1037,9 hPa 0,0 l/m 2,3 km/h (1 Bft) O-NO 67 0 min 0,0 UV-I -12,2 C -10,5 C 3,4 km/h (1 Bft)
08.02.2012 01:11 -9,7 C -2,5 C -9,3 C -10,2 C -11,2 C 0,0 C 82 % 84 % 0 % 1037,9 hPa 0,0 l/m 3,1 km/h (1 Bft) N 0 0 min 0,0 UV-I -12,2 C -11,2 C 6,1 km/h (2 Bft)
08.02.2012 01:20 -9,7 C -2,5 C -9,3 C -10,3 C -11,5 C 0,0 C 82 % 84 % 0 % 1040,8 hPa 0,0 l/m 3,4 km/h (1 Bft) O-NO 67 0 min 0,0 UV-I -12,2 C -11,5 C 3,7 km/h (1 Bft)
08.02.2012 01:25 -9,7 C -2,5 C -9,3 C -10,3 C -11,5 C 0,0 C 82 % 84 % 0 % 1040,8 hPa 0,0 l/m 3,4 km/h (1 Bft) O-NO 67 0 min 0,0 UV-I -12,2 C -11,5 C 3,5 km/h (1 Bft)
08.02.2012 01:30 -9,7 C -2,5 C -9,4 C -10,4 C -11,7 C 0,0 C 82 % 83 % 0 % 1040,8 hPa 0,0 l/m 3,7 km/h (1 Bft) O-NO 67 0 min 0,0 UV-I -12,2 C -11,7 C 4,0 km/h (1 Bft)
08.02.2012 01:35 -9,7 C -2,5 C -9,3 C -10,5 C -12,1 C 0,0 C 82 % 83 % 0 % 1040,8 hPa 0,0 l/m 4,2 km/h (1 Bft) O 90 0 min 0,0 UV-I -12,2 C -12,1 C 6,9 km/h (2 Bft)
08.02.2012 01:40 -9,7 C -2,5 C -9,3 C -10,5 C -12,1 C 0,0 C 82 % 83 % 0 % 1040,6 hPa 0,0 l/m 4,2 km/h (1 Bft) O-NO 67 0 min 0,0 UV-I -12,2 C -12,1 C 8,5 km/h (2 Bft)
08.02.2012 01:45 -9,7 C -2,5 C -9,3 C -10,4 C -11,7 C 0,0 C 82 % 83 % 0 % 1040,6 hPa 0,0 l/m 3,7 km/h (1 Bft) O-NO 67 0 min 0,0 UV-I -12,2 C -11,7 C 3,4 km/h (1 Bft)
08.02.2012 01:50 -9,7 C -2,5 C -9,3 C -10,2 C -11,1 C 0,0 C 82 % 83 % 0 % 1040,6 hPa 0,0 l/m 2,9 km/h (1 Bft) O 90 0 min 0,0 UV-I -12,2 C -11,1 C 3,2 km/h (1 Bft)
08.02.2012 01:55 -9,7 C -2,7 C -9,3 C -10,3 C -11,5 C 0,0 C 82 % 83 % 0 % 1040,6 hPa 0,0 l/m 3,4 km/h (1 Bft) O 90 0 min 0,0 UV-I -12,2 C -11,5 C 7,6 km/h (2 Bft)
08.02.2012 02:00 -9,7 C -2,5 C -9,3 C -10,4 C -11,7 C 0,0 C 81 % 83 % 0 % 1040,6 hPa 0,0 l/m 3,7 km/h (1 Bft) O-NO 67 0 min 0,0 UV-I -12,3 C -11,7 C 2,6 km/h (1 Bft)
08.02.2012 02:11 -9,7 C -2,5 C -9,3 C -10,4 C -11,7 C 0,0 C 81 % 82 % 0 % 1040,6 hPa 0,0 l/m 3,7 km/h (1 Bft) N 0 0 min 0,0 UV-I -12,3 C -11,7 C 5,6 km/h (1 Bft)
08.02.2012 02:20 -9,7 C -2,5 C -9,3 C -10,5 C -12,2 C 0,0 C 81 % 82 % 0 % 1040,6 hPa 0,0 l/m 4,3 km/h (1 Bft) O-NO 67 0 min 0,0 UV-I -12,3 C -12,2 C 9,3 km/h (2 Bft)
08.02.2012 02:25 -9,5 C -2,5 C -9,3 C -10,3 C -11,9 C 0,0 C 81 % 82 % 0 % 1040,6 hPa 0,0 l/m 3,9 km/h (1 Bft) O-NO 67 0 min 0,0 UV-I -12,1 C -11,9 C 3,7 km/h (1 Bft)
08.02.2012 02:30 -9,7 C -2,5 C -9,3 C -10,4 C -11,7 C 0,0 C 81 % 82 % 0 % 1040,6 hPa 0,0 l/m 3,7 km/h (1 Bft) NO 45 0 min 0,0 UV-I -12,3 C -11,7 C 4,3 km/h (1 Bft)
08.02.2012 02:35 -9,7 C -2,5 C -9,4 C -10,2 C -11,3 C 0,0 C 81 % 82 % 0 % 1040,6 hPa 0,0 l/m 3,1 km/h (1 Bft) O-NO 67 0 min 0,0 UV-I -12,3 C -11,3 C 2,1 km/h (1 Bft)
08.02.2012 02:40 -9,7 C -2,5 C -9,4 C -10,2 C -11,2 C 0,0 C 81 % 82 % 0 % 1040,2 hPa 0,0 l/m 2,9 km/h (1 Bft) O-NO 67 0 min 0,0 UV-I -12,3 C -11,2 C 3,9 km/h (1 Bft)
08.02.2012 02:45 -9,7 C -2,5 C -9,4 C -10,3 C -11,4 C 0,0 C 81 % 82 % 0 % 1040,2 hPa 0,0 l/m 3,2 km/h (1 Bft) O 90 0 min 0,0 UV-I -12,3 C -11,4 C 3,1 km/h (1 Bft)
08.02.2012 02:50 -9,7 C -2,5 C -9,4 C -10,4 C -11,7 C 0,0 C 80 % 82 % 0 % 1040,2 hPa 0,0 l/m 3,5 km/h (1 Bft) O-SO 112 0 min 0,0 UV-I -12,5 C -11,7 C 5,0 km/h (1 Bft)
08.02.2012 02:55 -9,7 C -2,5 C -9,4 C -10,4 C -11,7 C 0,0 C 81 % 82 % 0 % 1040,2 hPa 0,0 l/m 3,5 km/h (1 Bft) O 90 0 min 0,0 UV-I -12,3 C -11,7 C 3,9 km/h (1 Bft)
08.02.2012 03:00 -9,7 C -2,5 C -9,4 C -10,3 C -11,4 C 0,0 C 81 % 82 % 0 % 1040,2 hPa 0,0 l/m 3,2 km/h (1 Bft) O-NO 67 0 min 0,0 UV-I -12,3 C -11,4 C 4,0 km/h (1 Bft)
08.02.2012 03:12 -9,7 C -2,5 C -9,3 C -10,1 C -11,0 C 0,0 C 81 % 82 % 0 % 1040,2 hPa 0,0 l/m 2,7 km/h (1 Bft) N 0 0 min 0,0 UV-I -12,3 C -11,0 C 4,0 km/h (1 Bft)
08.02.2012 03:20 -9,7 C -2,5 C -9,3 C -10,0 C -10,7 C 0,0 C 81 % 82 % 0 % 1039,9 hPa 0,0 l/m 2,4 km/h (1 Bft) O-NO 67 0 min 0,0 UV-I -12,3 C -10,7 C 3,5 km/h (1 Bft)
08.02.2012 03:25 -9,7 C -2,5 C -9,3 C -10,2 C -11,2 C 0,0 C 81 % 82 % 0 % 1039,9 hPa 0,0 l/m 2,9 km/h (1 Bft) NO 45 0 min 0,0 UV-I -12,3 C -11,2 C 3,7 km/h (1 Bft)
08.02.2012 03:30 -9,7 C -2,5 C -9,3 C -10,2 C -11,2 C 0,0 C 81 % 82 % 0 % 1039,9 hPa 0,0 l/m 2,9 km/h (1 Bft) NO 45 0 min 0,0 UV-I -12,3 C -11,2 C 1,8 km/h (1 Bft)
08.02.2012 03:35 -9,7 C -2,5 C -9,3 C -10,0 C -10,5 C 0,0 C 81 % 83 % 0 % 1039,9 hPa 0,0 l/m 2,3 km/h (1 Bft) O-NO 67 0 min 0,0 UV-I -12,3 C -10,5 C 2,9 km/h (1 Bft)
08.02.2012 03:40 -9,7 C -2,5 C -9,3 C -9,8 C -9,9 C 0,0 C 81 % 83 % 0 % 1039,9 hPa 0,0 l/m 1,8 km/h (1 Bft) O-NO 67 0 min 0,0 UV-I -12,3 C -9,9 C 2,1 km/h (1 Bft)
08.02.2012 03:45 -9,7 C -2,5 C -9,3 C -9,9 C -10,3 C 0,0 C 81 % 83 % 0 % 1039,9 hPa 0,0 l/m 2,1 km/h (1 Bft) O-NO 67 0 min 0,0 UV-I -12,3 C -10,3 C 3,2 km/h (1 Bft)
08.02.2012 03:50 -9,7 C -2,5 C -9,3 C -10,0 C -10,5 C 0,0 C 81 % 83 % 0 % 1039,9 hPa 0,0 l/m 2,3 km/h (1 Bft) NO 45 0 min 0,0 UV-I -12,3 C -10,5 C 2,1 km/h (1 Bft)
08.02.2012 03:55 -9,6 C -2,5 C -9,3 C -10,0 C -10,8 C 0,0 C 81 % 83 % 0 % 1039,9 hPa 0,0 l/m 2,6 km/h (1 Bft) O-NO 67 0 min 0,0 UV-I -12,2 C -10,8 C 2,9 km/h (1 Bft)
08.02.2012 04:00 -9,6 C -2,5 C -9,3 C -10,0 C -10,9 C 0,0 C 81 % 82 % 0 % 1039,9 hPa 0,0 l/m 2,7 km/h (1 Bft) NO 45 0 min 0,0 UV-I -12,2 C -10,9 C 4,0 km/h (1 Bft)
08.02.2012 04:05 -9,6 C -2,5 C -9,3 C -10,0 C -10,8 C 0,0 C 81 % 82 % 0 % 1039,9 hPa 0,0 l/m 2,6 km/h (1 Bft) O 90 0 min 0,0 UV-I -12,2 C -10,8 C 3,4 km/h (1 Bft)
08.02.2012 04:10 -9,6 C -2,5 C -9,3 C -9,8 C -10,3 C 0,0 C 81 % 82 % 0 % 1039,9 hPa 0,0 l/m 2,3 km/h (1 Bft) O 90 0 min 0,0 UV-I -12,2 C -10,3 C 0,0 km/h (0 Bft)
08.02.2012 04:15 -9,6 C -2,5 C -9,3 C -9,8 C -10,2 C 0,0 C 81 % 82 % 0 % 1039,9 hPa 0,0 l/m 2,1 km/h (1 Bft) O-NO 67 0 min 0,0 UV-I -12,2 C -10,2 C 2,6 km/h (1 Bft)
08.02.2012 04:20 -9,6 C -2,5 C -9,3 C -10,0 C -10,8 C 0,0 C 81 % 82 % 0 % 1039,9 hPa 0,0 l/m 2,6 km/h (1 Bft) O 90 0 min 0,0 UV-I -12,2 C -10,8 C 3,2 km/h (1 Bft)
08.02.2012 04:25 -9,6 C -2,5 C -9,3 C -10,0 C -10,8 C 0,0 C 81 % 82 % 0 % 1039,9 hPa 0,0 l/m 2,6 km/h (1 Bft) O-NO 67 0 min 0,0 UV-I -12,2 C -10,8 C 0,0 km/h (0 Bft)
08.02.2012 04:30 -9,6 C -2,5 C -9,3 C -9,8 C -10,2 C 0,0 C 81 % 82 % 0 % 1039,9 hPa 0,0 l/m 2,1 km/h (1 Bft) N-NO 22 0 min 0,0 UV-I -12,2 C -10,2 C 1,6 km/h (1 Bft)
08.02.2012 04:35 -9,6 C -2,5 C -9,3 C -9,7 C -9,8 C 0,0 C 81 % 82 % 0 % 1039,9 hPa 0,0 l/m 1,8 km/h (1 Bft) O-SO 112 0 min 0,0 UV-I -12,2 C -9,8 C 3,2 km/h (1 Bft)
08.02.2012 04:40 -9,6 C -2,5 C -9,3 C -9,9 C -10,6 C 0,0 C 81 % 82 % 0 % 1039,9 hPa 0,0 l/m 2,4 km/h (1 Bft) O-NO 67 0 min 0,0 UV-I -12,2 C -10,6 C 3,9 km/h (1 Bft)
08.02.2012 04:45 -9,6 C -2,5 C -9,3 C -10,1 C -11,1 C 0,0 C 80 % 82 % 0 % 1039,9 hPa 0,0 l/m 2,9 km/h (1 Bft) O 90 0 min 0,0 UV-I -12,4 C -11,1 C 1,6 km/h (1 Bft)
08.02.2012 04:55 -9,6 C -2,5 C -9,3 C -10,5 C -12,4 C 0,0 C 80 % 82 % 0 % 1039,9 hPa 0,0 l/m 4,7 km/h (1 Bft) O-NO 67 0 min 0,0 UV-I -12,4 C -15,4 C 4,7 km/h (1 Bft)
08.02.2012 05:00 -9,6 C -2,5 C -9,3 C -10,6 C -12,5 C 0,0 C 80 % 82 % 0 % 1039,9 hPa 0,0 l/m 4,8 km/h (1 Bft) NO 45 0 min 0,0 UV-I -12,4 C -15,6 C 13,5 km/h (3 Bft)
08.02.2012 05:04 -9,6 C -2,5 C -9,3 C -10,3 C -11,7 C 0,0 C 80 % 82 % 0 % 1039,9 hPa 0,0 l/m 3,7 km/h (1 Bft) O-NO 67 0 min 0,0 UV-I -12,4 C -11,7 C 3,4 km/h (1 Bft)
08.02.2012 05:09 -9,6 C -2,5 C -9,1 C -10,3 C -11,6 C 0,0 C 80 % 82 % 0 % 1039,9 hPa 0,0 l/m 3,5 km/h (1 Bft) O-NO 67 0 min 0,0 UV-I -12,4 C -11,6 C 3,2 km/h (1 Bft)
08.02.2012 05:15 -9,6 C -2,5 C -9,3 C -10,3 C -11,7 C 0,0 C 80 % 82 % 0 % 1039,9 hPa 0,0 l/m 3,7 km/h (1 Bft) O-NO 67 0 min 0,0 UV-I -12,4 C -11,7 C 4,5 km/h (1 Bft)
08.02.2012 05:20 -9,6 C -2,5 C -9,3 C -10,4 C -11,9 C 0,0 C 80 % 82 % 0 % 1039,9 hPa 0,0 l/m 4,0 km/h (1 Bft) NO 45 0 min 0,0 UV-I -12,4 C -11,9 C 8,9 km/h (2 Bft)
08.02.2012 05:25 -9,6 C -2,5 C -9,3 C -10,4 C -12,1 C 0,0 C 80 % 82 % 0 % 1039,9 hPa 0,0 l/m 4,2 km/h (1 Bft) O 90 0 min 0,0 UV-I -12,4 C -12,1 C 4,0 km/h (1 Bft)
08.02.2012 05:30 -9,6 C -2,5 C -9,3 C -10,4 C -12,1 C 0,0 C 80 % 82 % 0 % 1039,9 hPa 0,0 l/m 4,2 km/h (1 Bft) O-NO 67 0 min 0,0 UV-I -12,4 C -12,1 C 4,3 km/h (1 Bft)
08.02.2012 05:35 -9,6 C -2,5 C -9,3 C -10,2 C -11,3 C 0,0 C 80 % 82 % 0 % 1039,9 hPa 0,0 l/m 3,2 km/h (1 Bft) O-NO 67 0 min 0,0 UV-I -12,4 C -11,3 C 2,3 km/h (1 Bft)
08.02.2012 05:40 -9,5 C -2,5 C -9,3 C -10,0 C -11,1 C 0,0 C 81 % 82 % 0 % 1039,9 hPa 0,0 l/m 2,9 km/h (1 Bft) O-NO 67 0 min 0,0 UV-I -12,1 C -11,1 C 2,9 km/h (1 Bft)
08.02.2012 05:45 -9,6 C -2,5 C -9,3 C -10,1 C -11,1 C 0,0 C 81 % 82 % 0 % 1039,9 hPa 0,0 l/m 2,9 km/h (1 Bft) O 90 0 min 0,0 UV-I -12,2 C -11,1 C 3,7 km/h (1 Bft)
08.02.2012 05:50 -9,5 C -2,5 C -9,3 C -10,2 C -11,5 C 0,0 C 81 % 82 % 0 % 1039,9 hPa 0,0 l/m 3,4 km/h (1 Bft) NO 45 0 min 0,0 UV-I -12,1 C -11,5 C 3,2 km/h (1 Bft)
08.02.2012 05:55 -9,6 C -2,5 C -9,3 C -10,1 C -11,1 C 0,0 C 81 % 83 % 0 % 1039,9 hPa 0,0 l/m 2,9 km/h (1 Bft) O-NO 67 0 min 0,0 UV-I -12,2 C -11,1 C 3,7 km/h (1 Bft)
08.02.2012 06:00 -9,7 C -2,5 C -9,3 C -10,1 C -10,8 C 0,0 C 81 % 83 % 0 % 1039,8 hPa 0,0 l/m 2,6 km/h (1 Bft) O-NO 67 0 min 0,0 UV-I -12,3 C -10,8 C 2,7 km/h (1 Bft)
08.02.2012 06:11 -9,6 C -2,5 C -9,3 C -10,2 C -11,3 C 0,0 C 81 % 83 % 0 % 1039,8 hPa 0,0 l/m 3,2 km/h (1 Bft) N 0 0 min 0,0 UV-I -12,2 C -11,3 C 4,3 km/h (1 Bft)
08.02.2012 06:20 -9,6 C -2,5 C -9,3 C -10,5 C -12,3 C 0,0 C 81 % 83 % 0 % 1039,8 hPa 0,0 l/m 4,5 km/h (1 Bft) O-NO 67 0 min 0,0 UV-I -12,2 C -12,3 C 4,3 km/h (1 Bft)
08.02.2012 06:25 -9,6 C -2,5 C -9,3 C -10,6 C -12,5 C 0,0 C 81 % 83 % 0 % 1039,8 hPa 0,0 l/m 4,8 km/h (1 Bft) O 90 0 min 0,0 UV-I -12,2 C -15,6 C 7,9 km/h (2 Bft)
08.02.2012 06:30 -9,6 C -2,5 C -9,3 C -10,6 C -12,7 C 0,0 C 81 % 83 % 0 % 1039,8 hPa 0,0 l/m 5,1 km/h (1 Bft) O-NO 67 0 min 0,0 UV-I -12,2 C -16,1 C 6,1 km/h (2 Bft)
08.02.2012 06:35 -9,6 C -2,5 C -9,3 C -10,7 C -12,8 C 0,0 C 81 % 83 % 0 % 1039,8 hPa 0,0 l/m 5,3 km/h (1 Bft) O-NO 67 0 min 0,0 UV-I -12,2 C -16,3 C 4,2 km/h (1 Bft)
08.02.2012 06:40 -9,6 C -2,5 C -9,3 C -10,8 C -13,1 C 0,0 C 81 % 82 % 0 % 1039,8 hPa 0,0 l/m 5,8 km/h (2 Bft) O-NO 67 0 min 0,0 UV-I -12,2 C -17,0 C 8,7 km/h (2 Bft)
08.02.2012 06:45 -9,5 C -2,5 C -9,3 C -10,7 C -13,1 C 0,0 C 81 % 82 % 0 % 1039,8 hPa 0,0 l/m 5,8 km/h (2 Bft) O-NO 67 0 min 0,0 UV-I -12,1 C -17,0 C 7,2 km/h (2 Bft)
08.02.2012 06:50 -9,5 C -2,5 C -9,3 C -10,7 C -13,0 C 0,0 C 81 % 82 % 0 % 1039,8 hPa 0,0 l/m 5,6 km/h (1 Bft) O-NO 67 0 min 0,0 UV-I -12,1 C -16,7 C 8,5 km/h (2 Bft)
08.02.2012 06:55 -9,5 C -2,5 C -9,3 C -10,7 C -13,0 C 0,0 C 81 % 82 % 0 % 1039,8 hPa 0,0 l/m 5,6 km/h (1 Bft) O-NO 67 0 min 0,0 UV-I -12,1 C -16,7 C 4,3 km/h (1 Bft)
08.02.2012 07:00 -9,5 C -2,5 C -9,3 C -10,6 C -12,7 C 0,0 C 81 % 83 % 0 % 1039,8 hPa 0,0 l/m 5,1 km/h (1 Bft) O-NO 67 0 min 0,0 UV-I -12,1 C -16,1 C 5,3 km/h (1 Bft)
08.02.2012 07:11 -9,5 C -2,5 C -9,2 C -10,4 C -12,2 C 0,0 C 81 % 82 % 0 % 1039,8 hPa 0,0 l/m 4,5 km/h (1 Bft) N 0 0 min 0,0 UV-I -12,1 C -12,2 C 4,3 km/h (1 Bft)
08.02.2012 07:20 -9,5 C -2,5 C -9,2 C -10,6 C -12,7 C 0,0 C 80 % 82 % 0 % 1040,1 hPa 0,0 l/m 5,3 km/h (1 Bft) O-NO 67 0 min 0,0 UV-I -12,3 C -16,2 C 6,3 km/h (2 Bft)
08.02.2012 07:25 -9,5 C -2,5 C -9,1 C -10,5 C -12,5 C 0,0 C 80 % 82 % 0 % 1040,1 hPa 0,0 l/m 5,0 km/h (1 Bft) O 90 0 min 0,0 UV-I -12,3 C -15,8 C 4,7 km/h (1 Bft)
08.02.2012 07:30 -9,5 C -2,5 C -9,1 C -10,4 C -12,2 C 0,0 C 80 % 82 % 0 % 1040,1 hPa 0,0 l/m 4,5 km/h (1 Bft) O-NO 67 0 min 0,0 UV-I -12,3 C -12,2 C 5,1 km/h (1 Bft)
08.02.2012 07:35 -9,5 C -2,5 C -9,1 C -10,2 C -11,6 C 0,0 C 81 % 83 % 0 % 1040,1 hPa 0,0 l/m 3,7 km/h (1 Bft) O-NO 67 0 min 0,0 UV-I -12,1 C -11,6 C 2,6 km/h (1 Bft)
08.02.2012 07:40 -9,5 C -2,5 C -9,1 C -10,4 C -12,1 C 0,0 C 81 % 82 % 0 % 1040,1 hPa 0,0 l/m 4,3 km/h (1 Bft) O-SO 112 0 min 0,0 UV-I -12,1 C -12,1 C 10,5 km/h (2 Bft)
08.02.2012 07:45 -9,5 C -2,5 C -9,1 C -10,4 C -12,3 C 0,0 C 81 % 83 % 0 % 1040,1 hPa 0,0 l/m 4,7 km/h (1 Bft) O-NO 67 0 min 0,0 UV-I -12,1 C -15,3 C 4,5 km/h (1 Bft)
08.02.2012 07:50 -9,5 C -2,5 C -9,1 C -10,5 C -12,4 C 0,0 C 81 % 83 % 0 % 1040,1 hPa 0,0 l/m 4,8 km/h (1 Bft) O-NO 67 0 min 0,0 UV-I -12,1 C -15,5 C 5,5 km/h (1 Bft)
08.02.2012 07:55 -9,3 C -2,5 C -9,1 C -10,3 C -12,4 C 0,0 C 81 % 83 % 0 % 1040,1 hPa 0,0 l/m 4,8 km/h (1 Bft) O-NO 67 0 min 0,0 UV-I -11,9 C -15,5 C 6,0 km/h (2 Bft)
08.02.2012 08:00 -9,3 C -2,5 C -9,1 C -10,3 C -12,3 C 0,0 C 81 % 83 % 0 % 1040,1 hPa 0,0 l/m 4,8 km/h (1 Bft) O-NO 67 0 min 0,0 UV-I -11,9 C -15,4 C 3,9 km/h (1 Bft)
08.02.2012 08:11 -9,3 C -2,4 C -9,1 C -10,1 C -11,7 C 0,0 C 81 % 83 % 0 % 1040,1 hPa 0,0 l/m 4,0 km/h (1 Bft) N 0 0 min 0,0 UV-I -11,9 C -11,7 C 7,1 km/h (2 Bft)
08.02.2012 08:20 -9,3 C -2,5 C -9,1 C -10,1 C -11,8 C 0,0 C 81 % 83 % 0 % 1040,1 hPa 0,0 l/m 4,2 km/h (1 Bft) O-NO 67 0 min 0,0 UV-I -11,9 C -11,8 C 6,4 km/h (2 Bft)
08.02.2012 08:25 -9,3 C -2,4 C -9,1 C -9,7 C -10,6 C 0,0 C 82 % 83 % 0 % 1040,1 hPa 0,0 l/m 2,9 km/h (1 Bft) NO 45 0 min 0,0 UV-I -11,8 C -10,6 C 0,0 km/h (0 Bft)
08.02.2012 08:30 -9,3 C -2,4 C -9,1 C -9,5 C -9,9 C 0,0 C 82 % 83 % 0 % 1040,1 hPa 0,0 l/m 2,3 km/h (1 Bft) O-NO 67 0 min 0,0 UV-I -11,8 C -9,9 C 3,2 km/h (1 Bft)
08.02.2012 08:35 -9,3 C -2,4 C -9,1 C -9,3 C -9,4 C 0,0 C 82 % 83 % 0 % 1040,1 hPa 0,0 l/m 1,6 km/h (1 Bft) NO 45 0 min 0,0 UV-I -11,8 C -9,4 C 3,4 km/h (1 Bft)
08.02.2012 08:40 -9,3 C -2,4 C -9,1 C -9,4 C -9,5 C 0,0 C 82 % 84 % 0 % 1040,1 hPa 0,0 l/m 1,9 km/h (1 Bft) O 90 0 min 0,0 UV-I -11,8 C -9,5 C 3,5 km/h (1 Bft)
08.02.2012 08:45 -9,3 C -2,4 C -9,1 C -9,5 C -10,0 C 0,0 C 82 % 84 % 0 % 1040,1 hPa 0,0 l/m 2,4 km/h (1 Bft) O-NO 67 0 min 0,0 UV-I -11,8 C -10,0 C 2,7 km/h (1 Bft)
08.02.2012 08:50 -9,3 C -2,4 C -8,9 C -9,6 C -10,2 C 0,0 C 82 % 84 % 0 % 1040,1 hPa 0,0 l/m 2,6 km/h (1 Bft) O-NO 67 0 min 0,0 UV-I -11,8 C -10,2 C 3,5 km/h (1 Bft)
08.02.2012 08:55 -9,3 C -2,4 C -9,1 C -9,7 C -10,5 C 0,0 C 82 % 84 % 0 % 1040,1 hPa 0,0 l/m 2,9 km/h (1 Bft) O-NO 67 0 min 0,0 UV-I -11,8 C -10,5 C 3,5 km/h (1 Bft)
08.02.2012 09:00 -9,3 C -2,4 C -8,9 C -9,8 C -10,7 C 0,0 C 82 % 84 % 0 % 1040,1 hPa 0,0 l/m 3,1 km/h (1 Bft) O 90 0 min 0,0 UV-I -11,8 C -10,7 C 3,4 km/h (1 Bft)
08.02.2012 09:11 -9,3 C -2,4 C -8,9 C -9,9 C -11,0 C 0,0 C 82 % 84 % 0 % 1040,1 hPa 0,0 l/m 3,5 km/h (1 Bft) N 0 0 min 0,0 UV-I -11,8 C -11,0 C 4,2 km/h (1 Bft)
08.02.2012 09:20 -9,3 C -2,4 C -8,9 C -9,7 C -10,4 C 0,0 C 82 % 84 % 0 % 1040,1 hPa 0,0 l/m 3,1 km/h (1 Bft) O-SO 112 0 min 0,0 UV-I -11,8 C -10,4 C 5,8 km/h (2 Bft)
08.02.2012 09:25 -9,3 C -2,4 C -8,9 C -9,4 C -9,6 C 0,0 C 82 % 84 % 0 % 1040,1 hPa 0,0 l/m 2,4 km/h (1 Bft) O-NO 67 0 min 0,0 UV-I -11,8 C -9,6 C 3,4 km/h (1 Bft)
08.02.2012 09:30 -9,3 C -2,4 C -8,7 C -8,8 C -8,8 C 0,5 C 82 % 84 % 13 % 1040,1 hPa 0,0 l/m 1,9 km/h (1 Bft) O-NO 67 0 min 0,0 UV-I -11,8 C -8,8 C 3,5 km/h (1 Bft)
08.02.2012 09:35 -9,3 C -2,4 C -8,9 C -9,4 C -9,7 C 0,0 C 82 % 83 % 0 % 1040,1 hPa 0,0 l/m 2,6 km/h (1 Bft) O 90 0 min 0,0 UV-I -11,8 C -9,7 C 4,0 km/h (1 Bft)
08.02.2012 09:40 -9,3 C -2,4 C -8,9 C -9,7 C -10,4 C 0,0 C 82 % 84 % 0 % 1040,1 hPa 0,0 l/m 3,4 km/h (1 Bft) N-NO 22 0 min 0,0 UV-I -11,8 C -10,4 C 5,5 km/h (1 Bft)
08.02.2012 09:45 -9,2 C -2,4 C -8,8 C -9,5 C -10,1 C 0,0 C 82 % 84 % 0 % 1040,1 hPa 0,0 l/m 3,1 km/h (1 Bft) O 90 0 min 0,0 UV-I -11,7 C -10,1 C 3,5 km/h (1 Bft)
08.02.2012 09:50 -9,2 C -2,4 C -8,8 C -9,4 C -9,8 C 0,0 C 82 % 83 % 0 % 1040,1 hPa 0,0 l/m 2,7 km/h (1 Bft) O-NO 67 0 min 0,0 UV-I -11,7 C -9,8 C 2,7 km/h (1 Bft)
08.02.2012 09:55 -9,1 C -2,4 C -8,7 C -9,3 C -9,8 C 0,0 C 82 % 83 % 0 % 1040,1 hPa 0,0 l/m 2,9 km/h (1 Bft) O 90 0 min 0,0 UV-I -11,6 C -9,8 C 2,7 km/h (1 Bft)
08.02.2012 10:00 -9,2 C -2,4 C -8,8 C -9,4 C -9,9 C 0,0 C 82 % 83 % 0 % 1040,1 hPa 0,0 l/m 3,2 km/h (1 Bft) O-NO 67 0 min 0,0 UV-I -11,7 C -9,9 C 4,3 km/h (1 Bft)
08.02.2012 10:11 -9,2 C -2,4 C -8,7 C -9,6 C -10,4 C 0,0 C 82 % 83 % 0 % 1040,1 hPa 0,0 l/m 3,9 km/h (1 Bft) N 0 0 min 0,0 UV-I -11,7 C -10,4 C 4,3 km/h (1 Bft)
08.02.2012 10:20 -9,1 C -2,4 C -8,5 C -9,5 C -10,4 C 0,0 C 82 % 82 % 0 % 1040,1 hPa 0,0 l/m 4,0 km/h (1 Bft) O-SO 112 0 min 0,0 UV-I -11,6 C -10,4 C 3,7 km/h (1 Bft)
08.02.2012 10:25 -9,1 C -2,4 C -8,5 C -9,6 C -10,6 C 0,0 C 82 % 82 % 0 % 1040,1 hPa 0,0 l/m 4,3 km/h (1 Bft) O-NO 67 0 min 0,0 UV-I -11,6 C -10,6 C 4,7 km/h (1 Bft)
08.02.2012 10:30 -9,1 C -2,4 C -8,7 C -9,6 C -10,7 C 0,0 C 81 % 82 % 0 % 1040,1 hPa 0,0 l/m 4,5 km/h (1 Bft) O-NO 67 0 min 0,0 UV-I -11,7 C -10,7 C 4,5 km/h (1 Bft)
08.02.2012 10:35 -9,1 C -2,4 C -8,5 C -9,6 C -10,6 C 0,0 C 81 % 82 % 0 % 1040,1 hPa 0,0 l/m 4,3 km/h (1 Bft) O-NO 67 0 min 0,0 UV-I -11,7 C -10,6 C 6,0 km/h (2 Bft)
08.02.2012 10:40 -9,1 C -2,4 C -8,5 C -9,4 C -10,1 C 0,0 C 81 % 82 % 0 % 1040,1 hPa 0,0 l/m 3,9 km/h (1 Bft) O-NO 67 0 min 0,0 UV-I -11,7 C -10,1 C 5,0 km/h (1 Bft)
08.02.2012 10:45 -8,9 C -2,4 C -8,5 C -9,5 C -10,6 C 0,0 C 81 % 82 % 0 % 1040,1 hPa 0,0 l/m 4,7 km/h (1 Bft) O 90 0 min 0,0 UV-I -11,5 C -13,4 C 3,9 km/h (1 Bft)
08.02.2012 10:50 -8,9 C -2,4 C -8,5 C -9,5 C -10,7 C 0,0 C 81 % 82 % 0 % 1040,1 hPa 0,0 l/m 4,8 km/h (1 Bft) O-NO 67 0 min 0,0 UV-I -11,5 C -13,6 C 5,0 km/h (1 Bft)
08.02.2012 10:55 -8,9 C -2,4 C -8,4 C -9,4 C -10,4 C 0,0 C 81 % 82 % 0 % 1040,1 hPa 0,0 l/m 4,7 km/h (1 Bft) O 90 0 min 0,0 UV-I -11,5 C -13,2 C 9,0 km/h (2 Bft)
08.02.2012 11:00 -8,9 C -2,4 C -8,5 C -9,5 C -10,7 C 0,0 C 81 % 82 % 0 % 1040,9 hPa 0,0 l/m 4,8 km/h (1 Bft) O 90 0 min 0,0 UV-I -11,5 C -13,6 C 2,7 km/h (1 Bft)
08.02.2012 11:11 -8,9 C -2,4 C -8,4 C -9,4 C -10,3 C 0,0 C 81 % 82 % 0 % 1040,9 hPa 0,0 l/m 4,3 km/h (1 Bft) N 0 0 min 0,0 UV-I -11,5 C -10,3 C 9,3 km/h (2 Bft)
08.02.2012 11:20 -8,9 C -2,5 C -8,3 C -9,6 C -10,9 C 0,0 C 81 % 82 % 0 % 1041,1 hPa 0,0 l/m 6,0 km/h (2 Bft) O 90 0 min 0,0 UV-I -11,5 C -14,6 C 8,2 km/h (2 Bft)
08.02.2012 11:25 -8,8 C -2,5 C -8,1 C -9,2 C -10,1 C 0,0 C 81 % 81 % 0 % 1041,1 hPa 0,0 l/m 4,8 km/h (1 Bft) O-NO 67 0 min 0,0 UV-I -11,5 C -12,9 C 3,7 km/h (1 Bft)
08.02.2012 11:30 -8,7 C -2,5 C -8,1 C -9,1 C -9,9 C 0,0 C 81 % 81 % 0 % 1041,1 hPa 0,0 l/m 4,8 km/h (1 Bft) O-NO 67 0 min 0,0 UV-I -11,4 C -12,7 C 4,7 km/h (1 Bft)
08.02.2012 11:35 -8,7 C -2,5 C -8,1 C -9,0 C -9,7 C 0,0 C 81 % 81 % 0 % 1041,1 hPa 0,0 l/m 4,8 km/h (1 Bft) O-NO 67 0 min 0,0 UV-I -11,4 C -12,5 C 9,5 km/h (2 Bft)
08.02.2012 11:40 -8,8 C -2,5 C -8,1 C -9,2 C -10,1 C 0,0 C 80 % 80 % 0 % 1041,1 hPa 0,0 l/m 5,5 km/h (1 Bft) O 90 0 min 0,0 UV-I -11,6 C -13,4 C 6,6 km/h (2 Bft)
08.02.2012 11:45 -8,7 C -2,5 C -8,1 C -9,0 C -9,6 C 0,0 C 80 % 80 % 0 % 1041,1 hPa 0,0 l/m 4,8 km/h (1 Bft) N-NO 22 0 min 0,0 UV-I -11,5 C -12,4 C 3,1 km/h (1 Bft)
08.02.2012 11:50 -8,6 C -2,5 C -7,9 C -8,2 C -8,2 C 0,4 C 80 % 81 % 11 % 1041,1 hPa 0,0 l/m 3,4 km/h (1 Bft) O 90 0 min 0,0 UV-I -11,4 C -8,2 C 5,5 km/h (1 Bft)
08.02.2012 11:55 -8,6 C -2,5 C -7,9 C -8,7 C -8,9 C 0,0 C 80 % 80 % 0 % 1041,1 hPa 0,0 l/m 4,3 km/h (1 Bft) O-NO 67 0 min 0,0 UV-I -11,4 C -8,9 C 7,1 km/h (2 Bft)
08.02.2012 12:00 -8,5 C -2,5 C -7,7 C -8,9 C -9,6 C 0,0 C 80 % 81 % 0 % 1041,1 hPa 0,0 l/m 5,5 km/h (1 Bft) O-NO 67 0 min 0,0 UV-I -11,3 C -12,8 C 5,3 km/h (1 Bft)
08.02.2012 12:11 -8,3 C -2,5 C -7,7 C -8,0 C -8,0 C 0,3 C 80 % 80 % 8 % 1041,1 hPa 0,0 l/m 3,5 km/h (1 Bft) N 0 0 min 0,0 UV-I -11,1 C -8,0 C 6,8 km/h (2 Bft)
08.02.2012 12:20 -8,5 C -2,5 C -7,7 C -8,7 C -9,1 C 0,0 C 79 % 80 % 0 % 1040,6 hPa 0,0 l/m 4,7 km/h (1 Bft) O 90 0 min 0,0 UV-I -11,5 C -11,7 C 6,4 km/h (2 Bft)
08.02.2012 12:25 -8,3 C -2,5 C -7,6 C -8,5 C -8,9 C 0,0 C 79 % 79 % 0 % 1040,6 hPa 0,0 l/m 5,3 km/h (1 Bft) O 90 0 min 0,0 UV-I -11,3 C -11,9 C 8,9 km/h (2 Bft)
08.02.2012 12:30 -8,4 C -2,5 C -7,6 C -8,6 C -9,1 C 0,0 C 79 % 80 % 0 % 1040,6 hPa 0,0 l/m 5,5 km/h (1 Bft) N 360 0 min 0,0 UV-I -11,4 C -12,2 C 0,0 km/h (0 Bft)
08.02.2012 12:35 -8,1 C -2,5 C -7,3 C -7,4 C -7,4 C 0,7 C 80 % 80 % 18 % 1040,6 hPa 0,0 l/m 3,7 km/h (1 Bft) O 90 0 min 0,0 UV-I -10,9 C -7,4 C 3,4 km/h (1 Bft)
08.02.2012 12:40 -8,0 C -2,5 C -7,3 C -6,6 C -6,6 C 1,4 C 80 % 80 % 37 % 1040,6 hPa 0,0 l/m 2,7 km/h (1 Bft) O-NO 67 0 min 0,0 UV-I -10,8 C -6,6 C 3,9 km/h (1 Bft)
08.02.2012 12:45 -7,9 C -2,5 C -7,3 C -6,7 C -6,7 C 1,2 C 79 % 79 % 32 % 1040,6 hPa 0,0 l/m 2,7 km/h (1 Bft) O-NO 67 0 min 0,0 UV-I -10,9 C -6,7 C 2,7 km/h (1 Bft)
08.02.2012 12:50 -8,0 C -2,5 C -7,3 C -6,6 C -6,6 C 1,4 C 79 % 79 % 37 % 1040,6 hPa 0,0 l/m 2,6 km/h (1 Bft) O-NO 67 0 min 0,0 UV-I -11,0 C -6,6 C 4,2 km/h (1 Bft)
08.02.2012 12:55 -8,0 C -2,5 C -7,3 C -6,7 C -6,7 C 1,3 C 79 % 79 % 34 % 1040,6 hPa 0,0 l/m 2,7 km/h (1 Bft) NW 315 0 min 0,0 UV-I -11,0 C -6,7 C 5,1 km/h (1 Bft)
08.02.2012 13:00 -8,0 C -2,5 C -7,3 C -6,9 C -6,9 C 1,1 C 79 % 79 % 29 % 1040,6 hPa 0,0 l/m 3,2 km/h (1 Bft) O-NO 67 0 min 0,0 UV-I -11,0 C -6,9 C 4,8 km/h (1 Bft)
08.02.2012 13:12 -7,9 C -2,4 C -7,3 C -6,6 C -6,6 C 1,3 C 78 % 78 % 34 % 1040,6 hPa 0,0 l/m 3,5 km/h (1 Bft) N 0 0 min 0,0 UV-I -11,0 C -6,6 C 6,0 km/h (2 Bft)
08.02.2012 13:20 -7,9 C -2,4 C -6,9 C -7,1 C -7,1 C 0,8 C 79 % 79 % 21 % 1040,6 hPa 0,0 l/m 4,2 km/h (1 Bft) S 180 0 min 0,0 UV-I -10,9 C -7,1 C 3,7 km/h (1 Bft)
08.02.2012 13:25 -7,7 C -2,4 C -6,9 C -6,2 C -6,2 C 1,5 C 78 % 79 % 39 % 1040,6 hPa 0,0 l/m 3,2 km/h (1 Bft) SO 135 0 min 0,0 UV-I -10,9 C -6,2 C 2,1 km/h (1 Bft)
08.02.2012 13:30 -7,7 C -2,4 C -7,0 C -6,2 C -6,2 C 1,5 C 78 % 78 % 39 % 1040,6 hPa 0,0 l/m 3,1 km/h (1 Bft) O-NO 67 0 min 0,0 UV-I -10,9 C -6,2 C 5,0 km/h (1 Bft)
08.02.2012 13:35 -7,8 C -2,4 C -7,1 C -6,8 C -6,8 C 1,0 C 78 % 78 % 26 % 1040,6 hPa 0,0 l/m 3,5 km/h (1 Bft) O 90 0 min 0,0 UV-I -10,9 C -6,8 C 4,7 km/h (1 Bft)
08.02.2012 13:40 -7,7 C -2,4 C -7,1 C -6,9 C -6,9 C 0,8 C 78 % 78 % 21 % 1040,6 hPa 0,0 l/m 4,0 km/h (1 Bft) O-NO 67 0 min 0,0 UV-I -10,9 C -6,9 C 3,9 km/h (1 Bft)
08.02.2012 13:45 -8,0 C -2,3 C -7,3 C -8,2 C -8,6 C 0,0 C 77 % 78 % 0 % 1040,6 hPa 0,0 l/m 5,1 km/h (1 Bft) O-NO 67 0 min 0,0 UV-I -11,3 C -11,4 C 3,5 km/h (1 Bft)
08.02.2012 13:50 -8,1 C -2,3 C -7,3 C -8,4 C -9,1 C 0,0 C 78 % 78 % 0 % 1040,6 hPa 0,0 l/m 5,0 km/h (1 Bft) O-NO 67 0 min 0,0 UV-I -11,2 C -11,9 C 7,2 km/h (2 Bft)
08.02.2012 13:55 -8,1 C -2,3 C -7,5 C -8,3 C -8,6 C 0,0 C 78 % 78 % 0 % 1040,6 hPa 0,0 l/m 4,0 km/h (1 Bft) O-NO 67 0 min 0,0 UV-I -11,2 C -8,6 C 5,3 km/h (1 Bft)
08.02.2012 14:00 -8,1 C -2,3 C -7,5 C -8,3 C -8,7 C 0,0 C 78 % 78 % 0 % 1040,6 hPa 0,0 l/m 4,7 km/h (1 Bft) O 90 0 min 0,0 UV-I -11,2 C -11,3 C 4,3 km/h (1 Bft)
08.02.2012 14:11 -7,7 C -2,4 C -7,2 C -6,8 C -6,8 C 0,9 C 78 % 78 % 24 % 1040,6 hPa 0,0 l/m 4,3 km/h (1 Bft) N 0 0 min 0,0 UV-I -10,9 C -6,8 C 7,9 km/h (2 Bft)
08.02.2012 14:20 -7,6 C -2,4 C -6,9 C -6,0 C -6,0 C 1,6 C 77 % 78 % 42 % 1040,6 hPa 0,0 l/m 3,9 km/h (1 Bft) O-NO 67 0 min 0,0 UV-I -10,9 C -6,0 C 3,4 km/h (1 Bft)
08.02.2012 14:25 -7,5 C -2,4 C -6,9 C -5,4 C -5,4 C 2,1 C 77 % 77 % 55 % 1040,6 hPa 0,0 l/m 3,7 km/h (1 Bft) O 90 0 min 0,0 UV-I -10,8 C -5,4 C 3,9 km/h (1 Bft)
08.02.2012 14:30 -7,3 C -2,4 C -6,1 C -5,0 C -5,0 C 2,3 C 77 % 77 % 61 % 1040,6 hPa 0,0 l/m 3,2 km/h (1 Bft) O-SO 112 0 min 0,0 UV-I -10,6 C -5,0 C 2,6 km/h (1 Bft)
08.02.2012 14:35 -7,5 C -2,2 C -5,1 C -5,0 C -5,0 C 2,5 C 77 % 74 % 66 % 1040,6 hPa 0,0 l/m 3,2 km/h (1 Bft) O 90 0 min 0,0 UV-I -10,8 C -5,0 C 5,1 km/h (1 Bft)
08.02.2012 14:40 -7,5 C -2,2 C -4,9 C -5,1 C -5,1 C 2,4 C 77 % 73 % 63 % 1040,6 hPa 0,0 l/m 3,2 km/h (1 Bft) O-SO 112 0 min 0,0 UV-I -10,8 C -5,1 C 3,4 km/h (1 Bft)
08.02.2012 14:45 -7,3 C -2,2 C -4,3 C -5,0 C -5,0 C 2,3 C 77 % 70 % 61 % 1040,6 hPa 0,0 l/m 3,4 km/h (1 Bft) O-NO 67 0 min 0,0 UV-I -10,6 C -5,0 C 4,2 km/h (1 Bft)
08.02.2012 14:50 -7,1 C -2,2 C -4,1 C -4,1 C -4,1 C 3,0 C 77 % 70 % 79 % 1040,6 hPa 0,0 l/m 2,6 km/h (1 Bft) N-NW 337 0 min 0,0 UV-I -10,4 C -4,1 C 2,9 km/h (1 Bft)
08.02.2012 14:55 -7,1 C -2,2 C -3,5 C -3,4 C -3,4 C 3,7 C 76 % 70 % 97 % 1040,6 hPa 0,0 l/m 2,1 km/h (1 Bft) O-NO 67 5 min 0,0 UV-I -10,6 C -3,4 C 1,6 km/h (1 Bft)
08.02.2012 15:00 -6,9 C -2,2 C -3,6 C -3,2 C -3,2 C 3,7 C 76 % 68 % 97 % 1040,6 hPa 0,0 l/m 1,9 km/h (1 Bft) N-NW 337 5 min 0,0 UV-I -10,4 C -3,2 C 3,2 km/h (1 Bft)
08.02.2012 15:11 -6,9 C -2,2 C -4,4 C -3,9 C -3,9 C 3,0 C 76 % 68 % 79 % 1040,6 hPa 0,0 l/m 1,9 km/h (1 Bft) N 0 0 min 0,0 UV-I -10,4 C -3,9 C 0,0 km/h (0 Bft)
08.02.2012 15:20 -6,9 C -2,2 C -5,3 C -3,9 C -3,9 C 3,0 C 75 % 70 % 79 % 1039,6 hPa 0,0 l/m 1,8 km/h (1 Bft) N-NO 22 0 min 0,0 UV-I -10,6 C -3,9 C 0,0 km/h (0 Bft)
08.02.2012 15:25 -6,9 C -2,2 C -5,5 C -4,1 C -4,1 C 2,8 C 74 % 71 % 74 % 1039,6 hPa 0,0 l/m 2,4 km/h (1 Bft) O 90 0 min 0,0 UV-I -10,7 C -4,1 C 4,0 km/h (1 Bft)
08.02.2012 15:30 -6,9 C -2,2 C -5,7 C -4,6 C -4,6 C 2,3 C 74 % 72 % 61 % 1039,6 hPa 0,0 l/m 2,7 km/h (1 Bft) O-SO 112 5 min 0,0 UV-I -10,7 C -4,6 C 3,9 km/h (1 Bft)
08.02.2012 15:35 -7,0 C -2,2 C -5,9 C -5,6 C -5,6 C 1,4 C 74 % 72 % 37 % 1039,6 hPa 0,0 l/m 3,7 km/h (1 Bft) O-SO 112 0 min 0,0 UV-I -10,8 C -5,6 C 2,1 km/h (1 Bft)
08.02.2012 15:40 -6,9 C -2,2 C -6,1 C -5,4 C -5,4 C 1,5 C 74 % 73 % 39 % 1039,6 hPa 0,0 l/m 3,4 km/h (1 Bft) O-NO 67 0 min 0,0 UV-I -10,7 C -5,4 C 3,5 km/h (1 Bft)
08.02.2012 15:45 -6,9 C -2,2 C -6,1 C -4,2 C -4,2 C 2,7 C 74 % 73 % 71 % 1039,6 hPa 0,0 l/m 1,9 km/h (1 Bft) O-NO 67 5 min 0,0 UV-I -10,7 C -4,2 C 2,6 km/h (1 Bft)
08.02.2012 15:50 -6,9 C -2,2 C -6,2 C -4,1 C -4,1 C 2,8 C 74 % 73 % 74 % 1039,6 hPa 0,0 l/m 1,9 km/h (1 Bft) O-NO 67 5 min 0,0 UV-I -10,7 C -4,1 C 3,4 km/h (1 Bft)
08.02.2012 15:55 -6,9 C -2,2 C -6,1 C -4,9 C -4,9 C 2,0 C 73 % 73 % 53 % 1039,6 hPa 0,0 l/m 2,7 km/h (1 Bft) O-NO 67 5 min 0,0 UV-I -10,9 C -4,9 C 2,3 km/h (1 Bft)
08.02.2012 16:00 -6,9 C -2,2 C -6,1 C -5,1 C -5,1 C 1,8 C 73 % 73 % 47 % 1039,6 hPa 0,0 l/m 2,9 km/h (1 Bft) O 90 5 min 0,0 UV-I -10,9 C -5,1 C 3,5 km/h (1 Bft)
08.02.2012 16:05 -6,9 C -2,2 C -6,3 C -4,7 C -4,7 C 2,2 C 73 % 73 % 58 % 1039,6 hPa 0,0 l/m 2,3 km/h (1 Bft) O-NO 67 5 min 0,0 UV-I -10,9 C -4,7 C 4,5 km/h (1 Bft)
08.02.2012 16:10 -6,7 C -2,2 C -6,3 C -5,4 C -5,4 C 1,3 C 73 % 73 % 34 % 1039,6 hPa 0,0 l/m 2,7 km/h (1 Bft) NO 45 5 min 0,0 UV-I -10,7 C -5,4 C 3,2 km/h (1 Bft)
08.02.2012 16:15 -6,7 C -2,1 C -6,5 C -5,8 C -5,8 C 0,9 C 73 % 73 % 24 % 1039,6 hPa 0,0 l/m 2,9 km/h (1 Bft) O-SO 112 0 min 0,0 UV-I -10,7 C -5,8 C 3,9 km/h (1 Bft)
08.02.2012 16:20 -6,9 C -2,1 C -6,4 C -5,7 C -5,7 C 1,2 C 73 % 73 % 32 % 1039,6 hPa 0,0 l/m 2,6 km/h (1 Bft) O-NO 67 5 min 0,0 UV-I -10,9 C -5,7 C 1,9 km/h (1 Bft)
08.02.2012 16:25 -6,9 C -2,1 C -6,5 C -5,7 C -5,7 C 1,2 C 73 % 74 % 32 % 1039,6 hPa 0,0 l/m 2,3 km/h (1 Bft) NO 45 5 min 0,0 UV-I -10,9 C -5,7 C 0,0 km/h (0 Bft)
08.02.2012 16:30 -6,9 C -2,1 C -6,5 C -5,6 C -5,6 C 1,3 C 73 % 74 % 34 % 1039,6 hPa 0,0 l/m 1,4 km/h (1 Bft) O-NO 67 5 min 0,0 UV-I -10,9 C -5,6 C 0,0 km/h (0 Bft)
08.02.2012 16:35 -6,9 C -2,1 C -6,7 C -5,9 C -5,9 C 1,0 C 73 % 75 % 26 % 1039,6 hPa 0,0 l/m 0,0 km/h (0 Bft) O-NO 67 5 min 0,0 UV-I -10,9 C -5,9 C 0,0 km/h (0 Bft)
08.02.2012 16:40 -7,0 C -2,1 C -6,7 C -6,2 C -6,2 C 0,8 C 73 % 75 % 21 % 1039,6 hPa 0,0 l/m 0,0 km/h (0 Bft) O-NO 67 5 min 0,0 UV-I -11,0 C -6,2 C 0,0 km/h (0 Bft)
08.02.2012 16:45 -7,1 C -2,1 C -6,7 C -6,7 C -6,7 C 0,4 C 74 % 75 % 11 % 1039,6 hPa 0,0 l/m 0,2 km/h (0 Bft) N-NO 22 0 min 0,0 UV-I -10,9 C -6,7 C 3,1 km/h (1 Bft)
08.02.2012 16:50 -7,2 C -2,1 C -6,9 C -7,0 C -7,0 C 0,2 C 74 % 75 % 5 % 1039,6 hPa 0,0 l/m 0,3 km/h (0 Bft) O-SO 112 0 min 0,0 UV-I -11,0 C -7,0 C 0,0 km/h (0 Bft)
08.02.2012 16:55 -7,3 C -2,0 C -6,9 C -7,3 C -7,4 C 0,0 C 74 % 76 % 0 % 1039,6 hPa 0,0 l/m 0,2 km/h (0 Bft) O-NO 67 0 min 0,0 UV-I -11,1 C -7,4 C 0,0 km/h (0 Bft)
08.02.2012 17:00 -7,3 C -2,0 C -7,1 C -7,5 C -7,9 C 0,0 C 74 % 76 % 0 % 1039,6 hPa 0,0 l/m 0,0 km/h (0 Bft) O-NO 67 0 min 0,0 UV-I -11,1 C -7,9 C 0,0 km/h (0 Bft)
08.02.2012 17:11 -7,5 C -2,0 C -7,3 C -7,9 C -8,8 C 0,0 C 75 % 76 % 0 % 1039,6 hPa 0,0 l/m 0,0 km/h (0 Bft) N 0 0 min 0,0 UV-I -11,1 C -8,8 C 0,0 km/h (0 Bft)
08.02.2012 17:20 -7,7 C -2,0 C -7,7 C -8,3 C -9,6 C 0,0 C 75 % 76 % 0 % 1039,6 hPa 0,0 l/m 0,0 km/h (0 Bft) O-NO 67 0 min 0,0 UV-I -11,3 C -9,6 C 0,0 km/h (0 Bft)
08.02.2012 17:25 -8,1 C -1,9 C -7,8 C -8,7 C -9,9 C 0,0 C 75 % 77 % 0 % 1039,6 hPa 0,0 l/m 0,0 km/h (0 Bft) O-NO 67 0 min 0,0 UV-I -11,7 C -9,9 C 0,0 km/h (0 Bft)
08.02.2012 17:30 -8,1 C -1,9 C -7,9 C -8,8 C -10,1 C 0,0 C 75 % 77 % 0 % 1039,6 hPa 0,0 l/m 0,0 km/h (0 Bft) O-NO 67 0 min 0,0 UV-I -11,7 C -10,1 C 0,0 km/h (0 Bft)
08.02.2012 17:35 -8,4 C -1,9 C -8,1 C -9,1 C -10,6 C 0,0 C 76 % 77 % 0 % 1039,6 hPa 0,0 l/m 0,0 km/h (0 Bft) O-NO 67 0 min 0,0 UV-I -11,9 C -10,6 C 0,0 km/h (0 Bft)
08.02.2012 17:40 -8,5 C -1,9 C -8,3 C -9,2 C -10,7 C 0,0 C 76 % 78 % 0 % 1039,6 hPa 0,0 l/m 0,0 km/h (0 Bft) O-NO 67 0 min 0,0 UV-I -12,0 C -10,7 C 0,0 km/h (0 Bft)
08.02.2012 17:45 -8,7 C -1,9 C -8,5 C -9,5 C -11,0 C 0,0 C 76 % 77 % 0 % 1039,6 hPa 0,0 l/m 0,0 km/h (0 Bft) O-SO 112 0 min 0,0 UV-I -12,1 C -11,0 C 0,0 km/h (0 Bft)
08.02.2012 17:50 -8,9 C -1,9 C -8,5 C -9,7 C -11,2 C 0,0 C 77 % 78 % 0 % 1039,6 hPa 0,0 l/m 0,0 km/h (0 Bft) O-SO 112 0 min 0,0 UV-I -12,2 C -11,2 C 0,0 km/h (0 Bft)
08.02.2012 17:55 -9,1 C -1,7 C -8,9 C -9,9 C -11,6 C 0,0 C 77 % 78 % 0 % 1039,6 hPa 0,0 l/m 0,0 km/h (0 Bft) O-SO 112 0 min 0,0 UV-I -12,4 C -11,6 C 0,0 km/h (0 Bft)
08.02.2012 18:00 -9,3 C -1,7 C -8,9 C -10,1 C -11,8 C 0,0 C 77 % 78 % 0 % 1039,6 hPa 0,0 l/m 0,0 km/h (0 Bft) O-SO 112 0 min 0,0 UV-I -12,6 C -11,8 C 0,0 km/h (0 Bft)
08.02.2012 18:11 -9,7 C -1,7 C -9,1 C -10,5 C -12,2 C 0,0 C 78 % 79 % 0 % 1039,6 hPa 0,0 l/m 0,0 km/h (0 Bft) N 0 0 min 0,0 UV-I -12,8 C -12,2 C 0,0 km/h (0 Bft)
08.02.2012 18:20 -10,1 C -1,7 C -9,3 C -10,9 C -12,6 C 0,0 C 79 % 79 % 0 % 1039,6 hPa 0,0 l/m 0,0 km/h (0 Bft) O-SO 112 0 min 0,0 UV-I -13,0 C -12,6 C 0,0 km/h (0 Bft)
08.02.2012 18:25 -10,3 C -1,7 C -9,5 C -11,0 C -12,5 C 0,0 C 78 % 80 % 0 % 1039,6 hPa 0,0 l/m 0,0 km/h (0 Bft) O-SO 112 0 min 0,0 UV-I -13,4 C -12,5 C 0,0 km/h (0 Bft)
08.02.2012 18:30 -10,3 C -1,7 C -9,7 C -11,1 C -12,7 C 0,0 C 79 % 80 % 0 % 1039,6 hPa 0,0 l/m 0,0 km/h (0 Bft) O-SO 112 0 min 0,0 UV-I -13,2 C -12,7 C 0,0 km/h (0 Bft)
08.02.2012 18:35 -10,6 C -1,7 C -9,7 C -11,3 C -12,8 C 0,0 C 79 % 80 % 0 % 1039,6 hPa 0,0 l/m 0,0 km/h (0 Bft) O-SO 112 0 min 0,0 UV-I -13,5 C -12,8 C 0,0 km/h (0 Bft)
08.02.2012 18:40 -10,7 C -1,7 C -9,9 C -11,4 C -12,8 C 0,0 C 79 % 80 % 0 % 1039,6 hPa 0,0 l/m 0,0 km/h (0 Bft) O-SO 112 0 min 0,0 UV-I -13,6 C -12,8 C 0,0 km/h (0 Bft)
08.02.2012 18:45 -10,9 C -1,7 C -10,1 C -11,6 C -12,9 C 0,0 C 79 % 80 % 0 % 1039,6 hPa 0,0 l/m 0,0 km/h (0 Bft) O-SO 112 0 min 0,0 UV-I -13,8 C -12,9 C 0,0 km/h (0 Bft)
08.02.2012 18:50 -10,9 C -1,7 C -10,3 C -11,6 C -12,9 C 0,0 C 80 % 81 % 0 % 1039,6 hPa 0,0 l/m 0,0 km/h (0 Bft) O-SO 112 0 min 0,0 UV-I -13,7 C -12,9 C 0,0 km/h (0 Bft)
08.02.2012 18:55 -11,1 C -1,7 C -10,4 C -11,8 C -13,2 C 0,0 C 80 % 81 % 0 % 1039,6 hPa 0,0 l/m 0,0 km/h (0 Bft) O-SO 112 0 min 0,0 UV-I -13,8 C -13,2 C 0,0 km/h (0 Bft)
08.02.2012 19:00 -11,1 C -1,7 C -10,5 C -11,8 C -13,2 C 0,0 C 80 % 81 % 0 % 1039,6 hPa 0,0 l/m 0,0 km/h (0 Bft) O-SO 112 0 min 0,0 UV-I -13,8 C -13,2 C 0,0 km/h (0 Bft)
08.02.2012 19:11 -11,3 C -1,7 C -10,5 C -11,9 C -13,0 C 0,0 C 81 % 82 % 0 % 1039,6 hPa 0,0 l/m 0,0 km/h (0 Bft) N 0 0 min 0,0 UV-I -13,9 C -13,0 C 0,0 km/h (0 Bft)
08.02.2012 19:20 -11,5 C -1,7 C -10,9 C -12,1 C -13,2 C 0,0 C 82 % 82 % 0 % 1039,6 hPa 0,0 l/m 0,0 km/h (0 Bft) O-SO 112 0 min 0,0 UV-I -13,9 C -13,2 C 0,0 km/h (0 Bft)
08.02.2012 19:25 -11,6 C -1,7 C -10,9 C -12,2 C -13,3 C 0,0 C 82 % 82 % 0 % 1039,6 hPa 0,0 l/m 0,0 km/h (0 Bft) O-SO 112 0 min 0,0 UV-I -14,0 C -13,3 C 0,0 km/h (0 Bft)
08.02.2012 19:30 -11,7 C -1,7 C -10,9 C -12,3 C -13,5 C 0,0 C 82 % 82 % 0 % 1039,6 hPa 0,0 l/m 0,0 km/h (0 Bft) O-SO 112 0 min 0,0 UV-I -14,1 C -13,5 C 0,0 km/h (0 Bft)
08.02.2012 19:35 -11,7 C -1,7 C -11,1 C -12,3 C -13,4 C 0,0 C 82 % 82 % 0 % 1039,6 hPa 0,0 l/m 0,0 km/h (0 Bft) O-SO 112 0 min 0,0 UV-I -14,1 C -13,4 C 0,0 km/h (0 Bft)
08.02.2012 19:40 -11,7 C -1,7 C -11,1 C -12,3 C -13,5 C 0,0 C 82 % 82 % 0 % 1039,6 hPa 0,0 l/m 0,0 km/h (0 Bft) O-SO 112 0 min 0,0 UV-I -14,1 C -13,5 C 0,0 km/h (0 Bft)
08.02.2012 19:45 -11,9 C -1,7 C -11,1 C -12,5 C -13,7 C 0,0 C 82 % 82 % 0 % 1039,6 hPa 0,0 l/m 0,0 km/h (0 Bft) O-SO 112 0 min 0,0 UV-I -14,3 C -13,7 C 0,0 km/h (0 Bft)
08.02.2012 19:50 -11,9 C -1,7 C -11,1 C -12,5 C -13,7 C 0,0 C 82 % 82 % 0 % 1039,6 hPa 0,0 l/m 0,0 km/h (0 Bft) O-SO 112 0 min 0,0 UV-I -14,3 C -13,7 C 0,0 km/h (0 Bft)
08.02.2012 19:55 -12,1 C -1,7 C -11,1 C -12,6 C -13,7 C 0,0 C 82 % 83 % 0 % 1039,6 hPa 0,0 l/m 0,0 km/h (0 Bft) O-SO 112 0 min 0,0 UV-I -14,5 C -13,7 C 0,0 km/h (0 Bft)
08.02.2012 20:00 -11,9 C -1,7 C -11,3 C -12,4 C -13,5 C 0,0 C 83 % 83 % 0 % 1039,6 hPa 0,0 l/m 0,0 km/h (0 Bft) O-SO 112 0 min 0,0 UV-I -14,2 C -13,5 C 0,0 km/h (0 Bft)
08.02.2012 20:11 -12,1 C -1,7 C -11,4 C -12,7 C -13,8 C 0,0 C 83 % 83 % 0 % 1039,6 hPa 0,0 l/m 0,0 km/h (0 Bft) N 0 0 min 0,0 UV-I -14,4 C -13,8 C 0,0 km/h (0 Bft)
08.02.2012 20:20 -12,3 C -1,8 C -11,5 C -12,8 C -13,9 C 0,0 C 83 % 83 % 0 % 1039,6 hPa 0,0 l/m 0,0 km/h (0 Bft) O-SO 112 0 min 0,0 UV-I -14,6 C -13,9 C 0,0 km/h (0 Bft)
08.02.2012 20:25 -12,5 C -1,8 C -11,5 C -13,0 C -14,1 C 0,0 C 83 % 83 % 0 % 1039,6 hPa 0,0 l/m 0,0 km/h (0 Bft) O-SO 112 0 min 0,0 UV-I -14,8 C -14,1 C 0,0 km/h (0 Bft)
08.02.2012 20:30 -12,5 C -1,8 C -11,7 C -13,0 C -14,0 C 0,0 C 83 % 83 % 0 % 1039,6 hPa 0,0 l/m 0,0 km/h (0 Bft) O-SO 112 0 min 0,0 UV-I -14,8 C -14,0 C 0,0 km/h (0 Bft)
08.02.2012 20:35 -12,5 C -1,8 C -11,7 C -13,0 C -13,9 C 0,0 C 83 % 83 % 0 % 1039,6 hPa 0,0 l/m 0,0 km/h (0 Bft) O-SO 112 0 min 0,0 UV-I -14,8 C -13,9 C 0,0 km/h (0 Bft)
08.02.2012 20:40 -12,5 C -1,8 C -11,7 C -13,0 C -14,0 C 0,0 C 83 % 84 % 0 % 1039,6 hPa 0,0 l/m 0,0 km/h (0 Bft) O-SO 112 0 min 0,0 UV-I -14,8 C -14,0 C 0,0 km/h (0 Bft)
08.02.2012 20:45 -12,5 C -1,8 C -11,7 C -13,0 C -13,9 C 0,0 C 83 % 83 % 0 % 1039,6 hPa 0,0 l/m 0,0 km/h (0 Bft) O-SO 112 0 min 0,0 UV-I -14,8 C -13,9 C 0,0 km/h (0 Bft)
08.02.2012 20:50 -12,5 C -1,8 C -11,7 C -12,9 C -13,8 C 0,0 C 83 % 84 % 0 % 1039,6 hPa 0,0 l/m 0,0 km/h (0 Bft) O-SO 112 0 min 0,0 UV-I -14,8 C -13,8 C 0,0 km/h (0 Bft)
08.02.2012 20:55 -12,5 C -1,8 C -11,7 C -13,0 C -13,9 C 0,0 C 83 % 84 % 0 % 1039,6 hPa 0,0 l/m 0,0 km/h (0 Bft) SO 135 0 min 0,0 UV-I -14,8 C -13,9 C 0,0 km/h (0 Bft)
08.02.2012 21:00 -12,7 C -1,8 C -11,6 C -13,1 C -13,8 C 0,0 C 83 % 84 % 0 % 1039,6 hPa 0,0 l/m 0,0 km/h (0 Bft) SO 135 0 min 0,0 UV-I -15,0 C -13,8 C 0,0 km/h (0 Bft)
08.02.2012 21:11 -12,5 C -1,8 C -11,5 C -12,8 C -13,4 C 0,0 C 84 % 84 % 0 % 1039,6 hPa 0,0 l/m 0,0 km/h (0 Bft) N 0 0 min 0,0 UV-I -14,6 C -13,4 C 0,0 km/h (0 Bft)
08.02.2012 21:20 -12,5 C -1,8 C -11,6 C -12,8 C -13,5 C 0,0 C 84 % 84 % 0 % 1039,6 hPa 0,0 l/m 0,0 km/h (0 Bft) SO 135 0 min 0,0 UV-I -14,6 C -13,5 C 0,0 km/h (0 Bft)
08.02.2012 21:25 -12,5 C -1,9 C -11,6 C -12,9 C -13,8 C 0,0 C 84 % 84 % 0 % 1039,6 hPa 0,0 l/m 0,0 km/h (0 Bft) SO 135 0 min 0,0 UV-I -14,6 C -13,8 C 0,0 km/h (0 Bft)
08.02.2012 21:30 -12,5 C -1,9 C -11,7 C -13,0 C -13,9 C 0,0 C 84 % 84 % 0 % 1039,6 hPa 0,0 l/m 0,0 km/h (0 Bft) SO 135 0 min 0,0 UV-I -14,6 C -13,9 C 0,0 km/h (0 Bft)
08.02.2012 21:35 -12,5 C -1,9 C -11,7 C -13,0 C -14,1 C 0,0 C 84 % 84 % 0 % 1039,6 hPa 0,0 l/m 0,0 km/h (0 Bft) SO 135 0 min 0,0 UV-I -14,6 C -14,1 C 0,0 km/h (0 Bft)
08.02.2012 21:40 -12,8 C -1,9 C -11,8 C -13,3 C -14,3 C 0,0 C 84 % 84 % 0 % 1039,6 hPa 0,0 l/m 0,0 km/h (0 Bft) SO 135 0 min 0,0 UV-I -14,9 C -14,3 C 0,0 km/h (0 Bft)
08.02.2012 21:45 -12,9 C -1,9 C -11,9 C -13,4 C -14,4 C 0,0 C 83 % 84 % 0 % 1039,6 hPa 0,0 l/m 0,0 km/h (0 Bft) SO 135 0 min 0,0 UV-I -15,2 C -14,4 C 0,0 km/h (0 Bft)
08.02.2012 21:50 -12,9 C -1,9 C -11,9 C -13,4 C -14,5 C 0,0 C 83 % 84 % 0 % 1039,6 hPa 0,0 l/m 0,0 km/h (0 Bft) SO 135 0 min 0,0 UV-I -15,2 C -14,5 C 0,0 km/h (0 Bft)
08.02.2012 21:55 -12,9 C -1,9 C -11,9 C -13,4 C -14,5 C 0,0 C 84 % 84 % 0 % 1039,6 hPa 0,0 l/m 0,0 km/h (0 Bft) SO 135 0 min 0,0 UV-I -15,0 C -14,5 C 0,0 km/h (0 Bft)
08.02.2012 22:00 -12,9 C -1,9 C -12,0 C -13,4 C -14,4 C 0,0 C 84 % 84 % 0 % 1039,6 hPa 0,0 l/m 0,0 km/h (0 Bft) SO 135 0 min 0,0 UV-I -15,0 C -14,4 C 0,0 km/h (0 Bft)
08.02.2012 22:11 -12,9 C -1,9 C -11,9 C -13,4 C -14,4 C 0,0 C 84 % 84 % 0 % 1039,6 hPa 0,0 l/m 0,0 km/h (0 Bft) N 0 0 min 0,0 UV-I -15,0 C -14,4 C 0,0 km/h (0 Bft)
08.02.2012 22:20 -12,9 C -1,9 C -12,1 C -13,4 C -14,5 C 0,0 C 84 % 84 % 0 % 1039,6 hPa 0,0 l/m 0,0 km/h (0 Bft) S 180 0 min 0,0 UV-I -15,0 C -14,5 C 0,0 km/h (0 Bft)
08.02.2012 22:25 -13,2 C -1,9 C -12,1 C -13,6 C -14,5 C 0,0 C 84 % 84 % 0 % 1039,6 hPa 0,0 l/m 0,0 km/h (0 Bft) S-SW 202 0 min 0,0 UV-I -15,3 C -14,5 C 0,0 km/h (0 Bft)
08.02.2012 22:30 -13,2 C -2,1 C -12,1 C -13,7 C -14,6 C 0,0 C 84 % 84 % 0 % 1039,6 hPa 0,0 l/m 0,0 km/h (0 Bft) S-SW 202 0 min 0,0 UV-I -15,3 C -14,6 C 0,0 km/h (0 Bft)
08.02.2012 22:35 -13,3 C -2,1 C -12,1 C -13,7 C -14,6 C 0,0 C 84 % 84 % 0 % 1039,6 hPa 0,0 l/m 0,0 km/h (0 Bft) S-SO 157 0 min 0,0 UV-I -15,4 C -14,6 C 0,0 km/h (0 Bft)
08.02.2012 22:40 -13,3 C -2,1 C -12,1 C -13,7 C -14,6 C 0,0 C 84 % 84 % 0 % 1039,6 hPa 0,0 l/m 0,0 km/h (0 Bft) SW 225 0 min 0,0 UV-I -15,4 C -14,6 C 0,0 km/h (0 Bft)
08.02.2012 22:45 -13,3 C -2,1 C -12,3 C -13,7 C -14,6 C 0,0 C 84 % 84 % 0 % 1039,6 hPa 0,0 l/m 0,0 km/h (0 Bft) S 180 0 min 0,0 UV-I -15,4 C -14,6 C 0,0 km/h (0 Bft)
08.02.2012 22:50 -13,3 C -2,1 C -12,3 C -13,7 C -14,6 C 0,0 C 84 % 84 % 0 % 1039,6 hPa 0,0 l/m 0,0 km/h (0 Bft) S-SO 157 0 min 0,0 UV-I -15,4 C -14,6 C 0,0 km/h (0 Bft)
08.02.2012 22:55 -13,3 C -2,1 C -12,4 C -13,8 C -14,8 C 0,0 C 84 % 84 % 0 % 1039,6 hPa 0,0 l/m 0,0 km/h (0 Bft) SO 135 0 min 0,0 UV-I -15,4 C -14,8 C 0,0 km/h (0 Bft)
08.02.2012 23:00 -13,3 C -2,1 C -12,4 C -13,8 C -14,8 C 0,0 C 84 % 84 % 0 % 1038,2 hPa 0,0 l/m 0,0 km/h (0 Bft) SO 135 0 min 0,0 UV-I -15,4 C -14,8 C 0,0 km/h (0 Bft)
08.02.2012 23:11 -13,4 C -2,1 C -12,5 C -13,9 C -15,0 C 0,0 C 84 % 84 % 0 % 1038,2 hPa 0,0 l/m 0,0 km/h (0 Bft) N 0 0 min 0,0 UV-I -15,5 C -15,0 C 0,0 km/h (0 Bft)
08.02.2012 23:20 -13,5 C -2,1 C -12,5 C -14,0 C -15,0 C 0,0 C 84 % 84 % 0 % 1038,2 hPa 0,0 l/m 0,0 km/h (0 Bft) SO 135 0 min 0,0 UV-I -15,6 C -15,0 C 0,0 km/h (0 Bft)
08.02.2012 23:25 -13,5 C -2,1 C -12,5 C -14,0 C -14,9 C 0,0 C 84 % 84 % 0 % 1038,2 hPa 0,0 l/m 0,0 km/h (0 Bft) SO 135 0 min 0,0 UV-I -15,6 C -14,9 C 0,0 km/h (0 Bft)
08.02.2012 23:30 -13,5 C -2,1 C -12,5 C -14,0 C -14,9 C 0,0 C 84 % 84 % 0 % 1038,2 hPa 0,0 l/m 0,0 km/h (0 Bft) SO 135 0 min 0,0 UV-I -15,6 C -14,9 C 0,0 km/h (0 Bft)
08.02.2012 23:35 -13,5 C -2,2 C -12,5 C -14,0 C -14,9 C 0,0 C 84 % 84 % 0 % 1038,2 hPa 0,0 l/m 0,0 km/h (0 Bft) S 180 0 min 0,0 UV-I -15,6 C -14,9 C 0,0 km/h (0 Bft)
08.02.2012 23:40 -13,5 C -2,2 C -12,5 C -13,9 C -14,8 C 0,0 C 84 % 85 % 0 % 1038,2 hPa 0,0 l/m 0,0 km/h (0 Bft) S-SW 202 0 min 0,0 UV-I -15,6 C -14,8 C 0,0 km/h (0 Bft)
08.02.2012 23:45 -13,5 C -2,2 C -12,5 C -13,9 C -14,8 C 0,0 C 84 % 84 % 0 % 1038,2 hPa 0,0 l/m 0,0 km/h (0 Bft) S 180 0 min 0,0 UV-I -15,6 C -14,8 C 0,0 km/h (0 Bft)
08.02.2012 23:50 -13,5 C -2,2 C -12,5 C -13,9 C -14,8 C 0,0 C 84 % 85 % 0 % 1038,2 hPa 0,0 l/m 0,3 km/h (0 Bft) S 180 0 min 0,0 UV-I -15,6 C -14,8 C 3,5 km/h (1 Bft)
08.02.2012 23:55 -13,3 C -2,2 C -12,5 C -13,7 C -14,5 C 0,0 C 85 % 85 % 0 % 1038,2 hPa 0,0 l/m 1,3 km/h (1 Bft) S 180 0 min 0,0 UV-I -15,3 C -14,5 C 3,7 km/h (1 Bft)
_ Min-Zeit 23:20 00:10 23:11 23:20 23:11 00:00 15:55 15:00 00:00 00:00 - 16:35 - - - 00:00 23:20 06:40 04:10
Minimum _ -13,5 C -2,7 C -12,5 C -14,0 C -15,0 C 0,0 C 73 % 68 % 0 % 1037,9 hPa - 0,0 km/h (0 Bft) - - - 0,0 UV-I -15,6 C -17,0 C 0,0 km/h (0 Bft)
_ Max-Zeit 16:10 17:55 14:55 15:00 15:00 15:00 23:55 23:40 15:00 11:20 00:00 11:20 - - 14:55 00:00 15:00 15:00 05:00
Maximum _ -6,7 C -1,7 C -3,5 C -3,2 C -3,2 C 3,7 C 85 % 85 % 97 % 1041,1 hPa 0,0 l/m 6,0 km/h
O (2 Bft)
- - 5 min 0,0 UV-I -10,4 C -3,2 C 13,5 km/h
NO (3 Bft)
Durchschnitt _ -9,7 C -2,3 C -9,1 C -9,8 C -10,7 C 0,3 C 80 % 81 % 8 % 1039,9 hPa #0,0 l/m 2,4 km/h (1 Bft) O-NO - #1:10 h 0,0 UV-I -12,4 C -11,1 C 3,0 km/h (1 Bft)
2012 www.wetterstation-wechselburg.de